Location: Castelnau
(43.6639°N, 0.8431°W)
Time: 17:04:47
(UTC+00:00)

Cosmos 1953 - Pass Details

Date: 13 January 2026
Orbit: 474 x 489 km, 82.5° (Epoch: 10 February)

Event Time Altitude Azimuth Distance (km) Brightness Sun altitude
Rises 06:59:42 0° 180° (S) 2,525 6.0 -6.5°
Reaches altitude 10° 07:01:47 10° 177° (S) 1,654 5.1 -6.2°
Maximum altitude 07:05:21 64° 96° (E) 542 2.6 -5.6°
Drops below altitude 10° 07:09:00 10° 14° (NNE) 1,679 4.7 -5.0°
Sets 07:11:07 0° 12° (NNE) 2,569 5.6 -4.6°
